This is the latest recevied weather packets stored in our database for station/object N5SNT-2. If no packets are shown the sender has not sent any weather packets the latest 10 day(s).
| Time | Temp. | Humidity | Pressure | Rain* | Wind** | Luminosity | Snow |
|---|---|---|---|---|---|---|---|
| 1777650443 | 15.56° C | 99% | 1013 hPa | 0 mm | - | 412 W/m² | - |
| 1777650144 | 15.56° C | 99% | 1013 hPa | 0.51 mm | - | 418 W/m² | - |
| 1777649844 | 15.56° C | 99% | 1013 hPa | 1.78 mm | - | 379 W/m² | - |
| 1777649545 | 15° C | 99% | 1014 hPa | 1.27 mm | - | 168 W/m² | - |
| 1777649243 | 15° C | 99% | 1014 hPa | 0.51 mm | - | 130 W/m² | - |
| 1777648944 | 15° C | 99% | 1015 hPa | 2.29 mm | - | 80 W/m² | - |
| 1777648644 | 15° C | 99% | 1015 hPa | 4.32 mm | - | 26 W/m² | - |
| 1777648343 | 15° C | 99% | 1015 hPa | 2.29 mm | - | 76 W/m² | - |
| 1777648045 | 15° C | 99% | 1015 hPa | 1.27 mm | - | 67 W/m² | - |
| 1777647743 | 15.56° C | 99% | 1015 hPa | 1.27 mm | - | 13 W/m² | - |
| 1777647444 | 15° C | 99% | 1014 hPa | 0.51 mm | - | 88 W/m² | - |
| 1777647143 | 15° C | 99% | 1014 hPa | 0 mm | - | 56 W/m² | - |
| 1777646844 | 15° C | 99% | 1014 hPa | 0 mm | - | 33 W/m² | - |
| 1777646544 | 15.56° C | 99% | 1014 hPa | 0 mm | - | 38 W/m² | - |
| 1777646244 | 15.56° C | 99% | 1014 hPa | 0 mm | - | 39 W/m² | - |
| 1777645944 | 15° C | 99% | 1014 hPa | 0 mm | - | 48 W/m² | - |
| 1777645644 | 15.56° C | 99% | 1014 hPa | 0 mm | - | 25 W/m² | - |
| 1777645343 | 15.56° C | 99% | 1014 hPa | 0 mm | - | 32 W/m² | - |
| 1777645044 | 15.56° C | 99% | 1014 hPa | 0.51 mm | - | 35 W/m² | - |
| 1777644743 | 15.56° C | 99% | 1014 hPa | 0.51 mm | - | 38 W/m² | - |
| 1777644444 | 15.56° C | 99% | 1014 hPa | 0 mm | - | 47 W/m² | - |
| 1777644144 | 15.56° C | 99% | 1014 hPa | 0.51 mm | - | 62 W/m² | - |
| 1777643843 | 15.56° C | 99% | 1015 hPa | 0.51 mm | - | 52 W/m² | - |
| 1777643543 | 15.56° C | 99% | 1015 hPa | 0.51 mm | - | 39 W/m² | - |
| 1777643244 | 15.56° C | 99% | 1016 hPa | 1.27 mm | - | 55 W/m² | - |
* Rain latest hour (hover to see other rain measurements)
** Current wind speed in m/s (hover to see current wind gust speed)